SCP
0 -0 -0 -0 -0 -0 -0 -0 -0 -0 -0 -0 -0 -0 -0 -0 0 -0 -0 0 0 -0 -0 -0 -0 -0 -0 -0 -0 0 0 0 0 0 0 0 0 0 -0 -0 0 0 -0
-0 -0 -0 -0 -0 -0 -0 -0 -0 -0 -0 -0 -0 -0 -0 0 0 -0 0 0 0 0 0 0 0 0 0 0 0 -0 0 0 0 0 0 0 0 0 0 0 0 0 0
0 -0 -0 -0 -0 -0 -0 -0 -0 -0 -0 -0 -0 -0 0 0 0 -0 0 0 0 0 0 0 0 0 0 0 0 0 0 0 0 0 0 0 0 0 0 0 0 0 0
0 -0 -0 0 -0 -0 -0 -0 -0 -0 -0 -0 -0 -0 -0 -0 -0 0 0 0 0 0 0 0 0 0 0 0 0 0 0 0 0 0 0 0 0 0 0 0 0 0 0
-0 -0 -0 -0 -0 -0 -0 -0 -0 -0 -0 -0 -0 -0 -0 -0 -0 -0 -0 -0 -0 -0 0 0 0 0 0 0 0 0 0 0 0 0 0 0 0 0 0 0 0 0 0
-0 -0 -0 -0 0 -0 -0 -0 -0 -0 -0 -0 -0 -0 0 -0 0 0 -0 -0 -0 -0 0 0 0 0 0 0 0 0 0 0 0 0 0 0 0 0 0 0 0 0 0
-0 -0 -0 -0 0 -0 -0 -0 -0 -0 -0 -0 -0 -0 0 0 0 0 -0 0 -0 0 -0 0 0 0 0 0 0 0 0 0 0 0 0 0 0 0 0 0 0 0 0
-0 -0 -0 -0 0 0 0 -0 -0 -0 0 0 0 0 0 0 0 0 0 0 0 0 0 0 0 0 0 0 0 0 0 0 0 0 0 0 0 0 0 0 0 0 0
-0 0 0 0 -0 0 -0 -0 0 -0 0 0 0 0 0 0 0 0 0 0 0 0 0 0 0 0 0 0 0 0 0 0 0 0 0 0 0 0 0 0 0 0 0
-0 0 0 0 0 0 -0 0 0 0 0 0 0 0 0 0 0 0 0 0 0 0 0 0 0 0 0 0 0 0 0 0 0 0 0 0 0 0 0 0 0 0 0
0 0 0 0 0 0 0 0 0 0 0 0 0 0 0 0 0 0 0 0 0 0 0 0 0 0 0 0 0 0 0 0 0 0 0 0 0 0 0 0 0 0 0
0 0 0 0 0 0 0 0 0 0 0 0 0 0 0 0 0 0 0 0 0 0 0 0 0 0 0 0 0 0 0 0 0 0 0 0 0 0 0 0 0 0 0
0 0 0 0 0 0 0 0 0 0 0 0 0 0 0 0 0 0 0 0 0 0 0 0 0 0 0 0 0 0 0 0 0 0 0 0 0 0 0 0 0 0 0
0 0 0 0 0 0 0 0 0 0 0 0 0 0 0 0 0 0 0 0 0 0 0 0 0 0 0 0 0 0 0 0 0 0 0 0 0 0 0 0 0 0 0
0 0 0 0 0 0 0 0 0 0 0 0 0 0 0 0 0 0 0 0 0 0 0 0 0 0 0 0 0 0 0 0 0 0 0 0 0 0 0 0 0 0 0
0 0 0 0 0 0 0 0 0 0 0 0 0 0 0 0 0 0 0 0 0 0 0 0 0 0 0 0 0 0 0 0 0 0 0 0 0 0 0 0 0 0 0
0 0 0 0 0 0 0 0 0 0 0 0 0 0 0 0 0 0 0 0 0 0 0 0 0 0 0 0 0 0 0 0 0 0 0 0 0 0 0 0 0 0 0
0 0 0 0 0 0 0 0 0 0 0 0 0 0 0 0 0 0 0 0 0 0 0 0 0 0 0 0 0 0 0 0 0 0 0 0 0 0 0 0 0 0 0
0 0 0 0 0 0 0 0 0 0 0 0 0 0 0 0 0 0 0 0 0 0 0 0 0 0 0 0 0 0 0 0 0 0 0 0 0 0 0 0 0 0 0
0 0 0 0 0 0 0 0 0 0 0 0 0 0 0 0 0 0 0 0 0 0 0 0 0 0 0 0 0 0 0 0 0 0 0 0 0 0 0 0 0 0 0
0 0 0 0 0 0 0 0 0 0 0 0 0 0 0 0 0 0 0 0 0 0 0 0 0 0 0 0 0 0 0 0 0 0 0 0 0 0 0 0 0 0 0
0 0 0 0 0 0 0 0 0 0 0 0 0 0 0 0 0 0 0 0 0 0 0 0 0 0 0 0 0 0 0 0 0 0 0 0 0 0 0 0 0 0 0
0 0 0 0 0 0 0 0 0 0 0 0 0 0 0 0 0 0 0 0 0 0 0 0 0 0 0 0 0 0 0 0 0 0 0 0 0 0 0 0 0 0 0
0 0 0 0 0 0 0 0 0 0 0 0 0 0 0 0 0 0 0 0 0 0 0 0 0 0 0 0 0 0 0 0 0 0 0 0 0 0 0 0 0 0 0
0 0 0 0 0 0 0 0 0 0 0 0 0 0 0 0 0 0 0 0 0 0 0 0 0 0 0 0 0 0 0 0 0 0 0 0 0 0 -0 0 0 0 0
0 0 0 0 0 0 0 0 0 0 0 0 0 0 0 0 0 0 0 0 0 0 0 0 0 0 0 0 0 0 0 0 0 0 0 0 0 -0 0 -0 -0 -0 -0
Wind_Speed_500mb
12 22 23 19 17 18 19 18 17 17 15 15 15 15 15 17 18 19 21 25 26 21 19 20 19 18 16 15 14 15 15 12 13 14 15 15 13 14 13 14 17 19 14
18 21 25 22 19 17 17 17 15 13 13 13 13 13 13 15 15 13 19 22 24 20 18 17 17 16 17 17 16 16 14 11 11 16 23 22 15 11 9 9 9 11 15
22 24 24 25 22 18 17 15 12 9 9 11 11 11 11 11 11 11 16 20 23 17 13 14 13 13 13 14 14 13 12 11 12 18 30 10 18 18 14 10 8 6 5
20 23 24 24 22 21 19 17 12 8 4 6 9 10 10 10 9 7 14 19 22 17 12 12 11 11 11 10 10 10 9 10 13 20 16 11 15 16 17 17 14 8 5
18 22 24 26 23 19 16 16 13 8 5 3 6 8 9 10 6 8 13 18 24 22 20 12 11 11 10 9 9 7 6 7 8 15 8 6 11 12 15 16 15 12 7
13 21 24 28 21 20 18 16 14 10 7 2 3 6 6 6 6 6 11 14 18 21 21 17 11 10 9 8 9 9 7 4 5 7 7 7 15 12 15 15 13 14 13
10 17 22 25 21 18 17 16 15 13 11 6 3 3 3 3 3 7 10 14 16 17 18 17 14 12 13 13 10 8 5 3 2 3 5 4 11 9 11 12 12 13 12
12 17 18 27 27 24 21 18 15 16 13 10 8 5 3 1 1 4 8 14 17 16 17 19 16 14 13 11 9 7 6 4 4 3 4 9 9 11 11 10 10 11 10
12 19 21 21 30 32 29 26 23 18 17 14 11 8 8 8 9 9 10 13 18 17 17 17 18 18 16 13 11 9 7 5 5 6 5 9 8 10 11 12 13 12 12
11 15 18 22 24 32 30 32 30 27 24 19 16 13 13 12 17 15 13 17 23 20 22 18 16 18 18 16 13 9 6 5 5 6 8 10 10 10 13 14 14 14 14
17 19 22 24 26 30 34 33 35 32 27 22 19 19 15 14 17 12 7 17 19 19 19 26 29 24 20 17 15 12 11 9 8 8 11 11 13 14 13 12 12 13 15
19 22 25 26 28 30 32 35 30 26 30 25 22 20 17 12 15 13 15 22 20 19 19 19 20 27 25 28 23 16 14 14 15 16 15 15 15 16 15 15 15 15 14
16 18 19 24 29 29 30 29 27 29 28 24 20 22 19 21 24 26 28 25 20 20 21 21 21 22 23 26 24 21 17 14 15 16 17 18 18 18 19 19 18 16 16
13 15 16 17 19 27 28 24 17 20 25 24 27 18 13 20 23 25 26 23 17 19 19 18 20 21 24 31 30 27 24 23 22 21 22 20 20 19 20 20 21 22 19
12 14 15 14 14 16 19 18 22 26 28 26 18 20 24 22 17 14 15 18 20 19 24 24 27 25 27 29 31 33 30 27 25 26 29 29 30 27 25 24 22 21 23
10 13 13 13 12 21 33 33 31 29 27 24 23 20 21 22 26 30 30 25 25 26 28 26 23 26 23 28 30 34 37 41 37 34 31 31 30 33 35 34 32 29 26
6 7 7 9 12 21 27 32 31 28 23 21 17 8 7 6 11 17 17 15 24 24 28 22 30 29 32 30 34 36 32 32 35 37 37 38 40 40 38 38 37 37 36
3 5 7 9 11 20 27 31 31 27 23 22 17 16 9 4 7 11 15 11 10 12 16 20 24 26 30 33 37 37 37 39 36 34 35 35 38 39 43 44 42 43 40
9 11 15 20 24 30 32 31 28 25 18 17 17 12 7 3 4 6 6 9 12 15 17 18 20 22 24 27 28 28 27 27 27 29 31 34 36 36 38 42 43 45 44
18 21 23 28 29 29 29 30 30 27 23 20 13 8 2 1 5 8 8 8 10 14 16 19 21 24 26 30 31 30 29 29 27 28 25 26 28 29 29 29 31 32 35
27 31 32 37 39 38 38 36 35 30 26 20 16 14 10 9 5 4 6 8 10 12 14 16 18 21 28 31 28 26 19 22 16 17 21 19 26 28 32 35 39 39 39
35 37 39 40 40 37 35 31 31 33 32 29 27 22 19 15 12 11 11 10 10 13 15 17 19 20 25 31 32 19 11 10 14 32 17 19 20 28 31 39 44 46 47
40 38 38 39 37 34 35 37 38 38 36 31 26 21 17 13 10 9 10 12 14 15 18 21 23 25 27 29 32 25 13 11 44 6 25 21 43 41 46 45 42 44 46
48 50 47 44 45 45 42 37 33 29 27 26 21 16 12 9 8 9 11 13 15 18 19 22 25 26 28 30 28 28 18 18 15 28 32 37 34 62 63 57 47 60 46
53 51 49 47 44 39 34 29 24 23 24 22 19 15 10 8 8 10 11 14 18 21 23 25 26 29 31 32 33 34 32 32 12 35 47 67 67 66 59 68 78 59 55
53 52 48 44 39 34 28 23 19 18 21 20 16 12 10 8 8 11 16 20 23 25 27 30 32 33 34 33 32 33 33 32 35 35 46 59 66 76 74 74 60 69 65
Wind_Direction_500mb
163 196 176 161 154 150 144 137 125 112 94 82 77 70 68 61 62 55 45 36 34 38 43 53 52 56 64 71 60 78 94 82 63 45 35 35 43 59 65 59 56 60 60
168 189 180 168 164 159 154 148 137 121 105 95 84 74 66 59 62 48 30 23 16 25 37 47 49 47 48 54 64 80 83 70 57 48 43 21 26 32 39 37 47 54 54
162 177 184 176 173 172 165 162 151 129 103 94 86 80 71 67 70 43 17 7 3 16 30 44 50 48 47 47 47 52 61 62 50 58 65 359 11 37 39 17 14 14 357
165 172 179 181 176 170 171 171 168 156 119 85 62 55 55 54 69 26 4 11 18 22 19 29 36 35 33 35 41 39 38 49 61 71 61 9 353 3 12 14 11 350 326
158 166 193 189 176 177 175 178 183 188 171 106 55 48 43 44 56 355 1 21 25 26 25 22 26 21 12 4 4 5 17 36 56 57 63 81 343 339 359 358 357 3 354
147 171 200 190 188 188 187 184 198 209 200 205 12 23 33 52 41 31 5 4 14 21 22 27 24 9 5 4 356 347 342 4 40 40 67 41 288 338 334 336 337 341 359
148 170 202 198 198 203 208 215 213 218 215 229 283 330 16 63 8 1 353 351 3 11 21 27 24 11 3 359 357 355 356 352 24 2 19 34 301 326 328 332 329 330 337
171 179 195 203 210 205 218 228 235 227 235 242 260 271 277 210 338 346 348 345 346 358 6 14 12 5 3 2 2 9 19 26 43 347 348 305 326 329 331 330 326 321 315
177 187 195 201 217 218 212 219 225 232 239 248 260 274 295 275 284 311 326 336 338 337 342 347 353 357 355 358 1 10 30 41 21 6 9 310 334 324 326 326 325 317 307
202 204 209 218 219 217 220 226 227 222 231 243 255 266 268 272 286 290 311 333 342 349 344 337 337 347 348 346 347 349 352 340 354 343 314 325 324 325 326 325 323 316 310
227 223 220 218 217 221 222 217 226 226 231 241 253 255 256 268 264 239 288 324 316 325 344 351 348 353 349 349 342 327 315 321 322 316 305 317 318 317 316 317 318 319 316
259 255 248 242 234 225 223 224 221 221 232 240 242 248 234 231 241 235 299 314 307 316 324 328 342 342 354 352 347 334 318 311 307 308 310 312 309 309 310 312 315 317 314
244 253 258 252 245 237 230 223 220 211 211 231 227 221 230 251 268 282 287 287 294 302 318 325 327 337 337 334 336 335 324 308 299 298 299 302 302 305 307 306 305 307 312
249 252 253 250 243 236 228 222 208 205 201 220 220 210 223 243 251 264 269 275 281 292 302 301 312 309 318 326 331 328 317 310 301 294 289 288 289 290 292 295 298 300 299
267 259 255 253 247 236 208 194 196 201 200 222 233 233 243 256 266 263 263 269 265 275 288 288 303 310 316 320 323 328 327 320 312 304 299 296 295 292 290 289 289 291 290
264 259 248 235 213 191 198 193 193 196 203 211 219 225 242 253 256 267 275 271 271 273 277 276 287 301 301 311 311 315 318 318 320 318 316 310 301 298 294 291 290 286 283
252 253 244 228 195 185 185 179 181 181 188 202 203 211 220 268 281 286 286 288 291 290 276 292 288 297 299 300 303 305 301 302 304 312 316 317 318 314 307 298 292 287 285
189 165 156 154 149 154 164 169 171 172 179 164 157 166 159 282 292 297 303 318 311 326 321 308 301 301 302 300 300 300 298 298 297 296 298 303 305 308 311 305 299 290 284
163 130 126 125 134 146 158 165 166 165 177 160 146 139 140 212 296 317 318 311 313 326 324 323 326 322 319 314 315 313 310 309 304 300 298 296 297 301 304 303 301 291 287
148 130 128 129 130 139 149 155 157 160 154 149 153 156 168 313 299 304 320 322 314 314 318 323 324 324 318 314 315 316 312 303 300 299 301 307 306 308 313 312 308 301 296
147 140 133 134 134 137 139 143 152 159 153 142 130 122 119 113 101 62 30 358 339 328 331 324 325 323 320 326 322 310 345 322 324 332 338 317 316 318 316 312 310 307 303
155 150 149 150 149 154 156 157 151 142 132 129 123 120 110 96 79 68 51 38 29 21 16 12 7 1 355 354 359 1 342 304 300 330 307 336 335 315 319 323 320 313 308
163 158 154 153 151 147 142 139 134 133 129 128 124 121 110 94 77 56 46 31 20 13 10 10 8 9 9 9 11 24 353 333 327 254 329 319 317 315 322 327 325 334 325
156 155 151 145 140 138 138 137 139 138 139 136 133 123 110 96 73 49 34 25 16 12 9 10 8 9 6 6 3 13 7 341 327 319 295 333 310 322 324 324 320 325 324
155 151 150 149 148 147 146 145 148 151 146 141 137 129 114 90 66 41 30 27 18 14 11 9 6 7 6 4 2 357 350 347 322 311 314 315 320 321 327 318 320 320 319
161 160 158 157 156 156 156 158 157 157 149 145 136 129 120 96 63 36 21 11 7 2 358 356 356 357 356 356 358 355 353 349 328 321 310 313 315 319 315 319 320 320 319
Wind_Speed_850mb
12 22 23 19 17 18 19 18 17 17 15 15 15 15 15 17 18 19 21 25 26 21 19 20 19 18 16 15 14 15 15 12 13 14 15 15 13 14 13 14 17 19 14
18 21 25 22 19 17 17 17 15 13 13 13 13 13 13 15 15 13 19 22 24 20 18 17 17 16 17 17 16 16 14 11 11 16 23 22 15 11 9 9 9 11 15
22 24 24 25 22 18 17 15 12 9 9 11 11 11 11 11 11 11 16 20 23 17 13 14 13 13 13 14 14 13 12 11 12 18 30 10 18 18 14 10 8 6 5
20 23 24 24 22 21 19 17 12 8 4 6 9 10 10 10 9 7 14 19 22 17 12 12 11 11 11 10 10 10 9 10 13 20 16 11 15 16 17 17 14 8 5
18 22 24 26 23 19 16 16 13 8 5 3 6 8 9 10 6 8 13 18 24 22 20 12 11 11 10 9 9 7 6 7 8 15 8 6 11 12 15 16 15 12 7
13 21 24 28 21 20 18 16 14 10 7 2 3 6 6 6 6 6 11 14 18 21 21 17 11 10 9 8 9 9 7 4 5 7 7 7 15 12 15 15 13 14 13
10 17 22 25 21 18 17 16 15 13 11 6 3 3 3 3 3 7 10 14 16 17 18 17 14 12 13 13 10 8 5 3 2 3 5 4 11 9 11 12 12 13 12
12 17 18 27 27 24 21 18 15 16 13 10 8 5 3 1 1 4 8 14 17 16 17 19 16 14 13 11 9 7 6 4 4 3 4 9 9 11 11 10 10 11 10
12 19 21 21 30 32 29 26 23 18 17 14 11 8 8 8 9 9 10 13 18 17 17 17 18 18 16 13 11 9 7 5 5 6 5 9 8 10 11 12 13 12 12
11 15 18 22 24 32 30 32 30 27 24 19 16 13 13 12 17 15 13 17 23 20 22 18 16 18 18 16 13 9 6 5 5 6 8 10 10 10 13 14 14 14 14
17 19 22 24 26 30 34 33 35 32 27 22 19 19 15 14 17 12 7 17 19 19 19 26 29 24 20 17 15 12 11 9 8 8 11 11 13 14 13 12 12 13 15
19 22 25 26 28 30 32 35 30 26 30 25 22 20 17 12 15 13 15 22 20 19 19 19 20 27 25 28 23 16 14 14 15 16 15 15 15 16 15 15 15 15 14
16 18 19 24 29 29 30 29 27 29 28 24 20 22 19 21 24 26 28 25 20 20 21 21 21 22 23 26 24 21 17 14 15 16 17 18 18 18 19 19 18 16 16
13 15 16 17 19 27 28 24 17 20 25 24 27 18 13 20 23 25 26 23 17 19 19 18 20 21 24 31 30 27 24 23 22 21 22 20 20 19 20 20 21 22 19
12 14 15 14 14 16 19 18 22 26 28 26 18 20 24 22 17 14 15 18 20 19 24 24 27 25 27 29 31 33 30 27 25 26 29 29 30 27 25 24 22 21 23
10 13 13 13 12 21 33 33 31 29 27 24 23 20 21 22 26 30 30 25 25 26 28 26 23 26 23 28 30 34 37 41 37 34 31 31 30 33 35 34 32 29 26
6 7 7 9 12 21 27 32 31 28 23 21 17 8 7 6 11 17 17 15 24 24 28 22 30 29 32 30 34 36 32 32 35 37 37 38 40 40 38 38 37 37 36
3 5 7 9 11 20 27 31 31 27 23 22 17 16 9 4 7 11 15 11 10 12 16 20 24 26 30 33 37 37 37 39 36 34 35 35 38 39 43 44 42 43 40
9 11 15 20 24 30 32 31 28 25 18 17 17 12 7 3 4 6 6 9 12 15 17 18 20 22 24 27 28 28 27 27 27 29 31 34 36 36 38 42 43 45 44
18 21 23 28 29 29 29 30 30 27 23 20 13 8 2 1 5 8 8 8 10 14 16 19 21 24 26 30 31 30 29 29 27 28 25 26 28 29 29 29 31 32 35
27 31 32 37 39 38 38 36 35 30 26 20 16 14 10 9 5 4 6 8 10 12 14 16 18 21 28 31 28 26 19 22 16 17 21 19 26 28 32 35 39 39 39
35 37 39 40 40 37 35 31 31 33 32 29 27 22 19 15 12 11 11 10 10 13 15 17 19 20 25 31 32 19 11 10 14 32 17 19 20 28 31 39 44 46 47
40 38 38 39 37 34 35 37 38 38 36 31 26 21 17 13 10 9 10 12 14 15 18 21 23 25 27 29 32 25 13 11 44 6 25 21 43 41 46 45 42 44 46
48 50 47 44 45 45 42 37 33 29 27 26 21 16 12 9 8 9 11 13 15 18 19 22 25 26 28 30 28 28 18 18 15 28 32 37 34 62 63 57 47 60 46
53 51 49 47 44 39 34 29 24 23 24 22 19 15 10 8 8 10 11 14 18 21 23 25 26 29 31 32 33 34 32 32 12 35 47 67 67 66 59 68 78 59 55
53 52 48 44 39 34 28 23 19 18 21 20 16 12 10 8 8 11 16 20 23 25 27 30 32 33 34 33 32 33 33 32 35 35 46 59 66 76 74 74 60 69 65
Wind_Direction_850mb
163 196 176 161 154 150 144 137 125 112 94 82 77 70 68 61 62 55 45 36 34 38 43 53 52 56 64 71 60 78 94 82 63 45 35 35 43 59 65 59 56 60 60
168 189 180 168 164 159 154 148 137 121 105 95 84 74 66 59 62 48 30 23 16 25 37 47 49 47 48 54 64 80 83 70 57 48 43 21 26 32 39 37 47 54 54
162 177 184 176 173 172 165 162 151 129 103 94 86 80 71 67 70 43 17 7 3 16 30 44 50 48 47 47 47 52 61 62 50 58 65 359 11 37 39 17 14 14 357
165 172 179 181 176 170 171 171 168 156 119 85 62 55 55 54 69 26 4 11 18 22 19 29 36 35 33 35 41 39 38 49 61 71 61 9 353 3 12 14 11 350 326
158 166 193 189 176 177 175 178 183 188 171 106 55 48 43 44 56 355 1 21 25 26 25 22 26 21 12 4 4 5 17 36 56 57 63 81 343 339 359 358 357 3 354
147 171 200 190 188 188 187 184 198 209 200 205 12 23 33 52 41 31 5 4 14 21 22 27 24 9 5 4 356 347 342 4 40 40 67 41 288 338 334 336 337 341 359
148 170 202 198 198 203 208 215 213 218 215 229 283 330 16 63 8 1 353 351 3 11 21 27 24 11 3 359 357 355 356 352 24 2 19 34 301 326 328 332 329 330 337
171 179 195 203 210 205 218 228 235 227 235 242 260 271 277 210 338 346 348 345 346 358 6 14 12 5 3 2 2 9 19 26 43 347 348 305 326 329 331 330 326 321 315
177 187 195 201 217 218 212 219 225 232 239 248 260 274 295 275 284 311 326 336 338 337 342 347 353 357 355 358 1 10 30 41 21 6 9 310 334 324 326 326 325 317 307
202 204 209 218 219 217 220 226 227 222 231 243 255 266 268 272 286 290 311 333 342 349 344 337 337 347 348 346 347 349 352 340 354 343 314 325 324 325 326 325 323 316 310
227 223 220 218 217 221 222 217 226 226 231 241 253 255 256 268 264 239 288 324 316 325 344 351 348 353 349 349 342 327 315 321 322 316 305 317 318 317 316 317 318 319 316
259 255 248 242 234 225 223 224 221 221 232 240 242 248 234 231 241 235 299 314 307 316 324 328 342 342 354 352 347 334 318 311 307 308 310 312 309 309 310 312 315 317 314
244 253 258 252 245 237 230 223 220 211 211 231 227 221 230 251 268 282 287 287 294 302 318 325 327 337 337 334 336 335 324 308 299 298 299 302 302 305 307 306 305 307 312
249 252 253 250 243 236 228 222 208 205 201 220 220 210 223 243 251 264 269 275 281 292 302 301 312 309 318 326 331 328 317 310 301 294 289 288 289 290 292 295 298 300 299
267 259 255 253 247 236 208 194 196 201 200 222 233 233 243 256 266 263 263 269 265 275 288 288 303 310 316 320 323 328 327 320 312 304 299 296 295 292 290 289 289 291 290
264 259 248 235 213 191 198 193 193 196 203 211 219 225 242 253 256 267 275 271 271 273 277 276 287 301 301 311 311 315 318 318 320 318 316 310 301 298 294 291 290 286 283
252 253 244 228 195 185 185 179 181 181 188 202 203 211 220 268 281 286 286 288 291 290 276 292 288 297 299 300 303 305 301 302 304 312 316 317 318 314 307 298 292 287 285
189 165 156 154 149 154 164 169 171 172 179 164 157 166 159 282 292 297 303 318 311 326 321 308 301 301 302 300 300 300 298 298 297 296 298 303 305 308 311 305 299 290 284
163 130 126 125 134 146 158 165 166 165 177 160 146 139 140 212 296 317 318 311 313 326 324 323 326 322 319 314 315 313 310 309 304 300 298 296 297 301 304 303 301 291 287
148 130 128 129 130 139 149 155 157 160 154 149 153 156 168 313 299 304 320 322 314 314 318 323 324 324 318 314 315 316 312 303 300 299 301 307 306 308 313 312 308 301 296
147 140 133 134 134 137 139 143 152 159 153 142 130 122 119 113 101 62 30 358 339 328 331 324 325 323 320 326 322 310 345 322 324 332 338 317 316 318 316 312 310 307 303
155 150 149 150 149 154 156 157 151 142 132 129 123 120 110 96 79 68 51 38 29 21 16 12 7 1 355 354 359 1 342 304 300 330 307 336 335 315 319 323 320 313 308
163 158 154 153 151 147 142 139 134 133 129 128 124 121 110 94 77 56 46 31 20 13 10 10 8 9 9 9 11 24 353 333 327 254 329 319 317 315 322 327 325 334 325
156 155 151 145 140 138 138 137 139 138 139 136 133 123 110 96 73 49 34 25 16 12 9 10 8 9 6 6 3 13 7 341 327 319 295 333 310 322 324 324 320 325 324
155 151 150 149 148 147 146 145 148 151 146 141 137 129 114 90 66 41 30 27 18 14 11 9 6 7 6 4 2 357 350 347 322 311 314 315 320 321 327 318 320 320 319
161 160 158 157 156 156 156 158 157 157 149 145 136 129 120 96 63 36 21 11 7 2 358 356 356 357 356 356 358 355 353 349 328 321 310 313 315 319 315 319 320 320 319